N5VKM Weather Reports


Display with metric or nautical units.
time (UTC)temp
F
wind
direction
speed
MPH
gust
MPH
rain 1hr
in
rain 24hr
in
rain mn
in
humidity
%
barometer
mb
20260510063605 74 331 0.0 0.0 0.00 0.00 0.00 86 1012.4
20260510063035 74 332 0.0 0.0 0.00 0.00 0.00 86 1012.8
20260510062546 75 331 0.0 0.0 0.00 0.00 0.00 87 1012.9
20260510062036 75 338 0.0 0.0 0.00 0.00 0.00 87 1013.0
20260510061542 75 331 0.0 0.0 0.00 0.00 0.00 87 1013.1
20260510061045 75 331 0.0 0.0 0.00 0.00 0.00 88 1013.0
20260510060559 75 331 0.0 0.0 0.00 0.00 0.00 87 1012.9
20260510060042 75 338 0.0 0.0 0.00 0.00 0.00 87 1012.8
20260510055543 75 332 0.0 0.0 0.00 0.01 0.00 87 1012.9
20260510055035 75 338 0.0 0.0 0.00 0.01 0.00 88 1013.0
20260510054549 75 331 0.0 0.0 0.00 0.01 0.00 88 1012.7
20260510054035 75 332 0.0 0.0 0.00 0.01 0.00 88 1012.1
20260510053542 75 331 0.0 0.0 0.00 0.01 0.00 88 1011.5
20260510053032 74 332 0.0 0.0 0.00 0.01 0.00 88 1010.8
20260510052540 74 331 0.0 0.0 0.00 0.01 0.00 88 1010.5
20260510052032 74 332 0.0 0.0 0.00 0.01 0.00 88 1010.3
20260510051539 74 333 0.0 0.0 0.00 0.01 0.00 87 1010.1
20260510051111 74 333 0.0 0.0 0.00 0.01 0.00 87 1010.0
20260510050540 74 333 0.0 0.0 0.00 0.01 0.00 86 1009.8
20260510050032 74 334 0.0 0.0 0.00 0.01 0.00 86 1009.8
20260510045600 74 333 0.0 0.0 0.00 0.01 0.01 85 1009.7
20260510045046 74 333 0.0 0.0 0.00 0.01 0.01 85 1009.7
20260510044531 74 333 0.0 0.0 0.00 0.01 0.01 84 1009.7
20260510044046 74 333 0.0 0.0 0.00 0.01 0.01 83 1009.6
20260510043537 74 333 0.0 0.0 0.00 0.01 0.01 82 1009.3
20260510043048 74 333 0.0 0.0 0.00 0.01 0.01 82 1009.2
20260510042535 74 333 0.0 0.0 0.00 0.01 0.01 81 1009.2
20260510042042 74 332 0.0 0.0 0.00 0.01 0.01 80 1009.2
20260510041555 74 333 0.0 0.0 0.00 0.01 0.01 80 1009.2
20260510041041 74 333 0.0 0.0 0.00 0.01 0.01 80 1009.3
20260510040530 74 333 0.0 0.0 0.00 0.01 0.01 79 1009.2
20260510040044 74 334 0.0 0.0 0.00 0.01 0.01 79 1009.1
20260510035532 74 333 0.0 0.0 0.00 0.01 0.01 78 1009.2
20260510035043 74 333 0.0 0.0 0.00 0.01 0.01 78 1009.3
20260510034532 75 333 0.0 0.0 0.00 0.01 0.01 78 1009.4
20260510034107 75 333 0.0 0.0 0.00 0.01 0.01 77 1009.4
20260510033538 75 333 0.0 0.0 0.00 0.01 0.01 77 1009.5
20260510033035 75 333 0.0 0.0 0.00 0.01 0.01 76 1009.6
20260510032543 75 332 0.0 0.0 0.00 0.01 0.01 76 1009.5
20260510032029 75 333 0.0 0.0 0.00 0.01 0.01 75 1009.5
20260510031544 75 334 0.0 0.0 0.00 0.01 0.01 74 1009.5
20260510031041 76 332 0.0 0.0 0.00 0.01 0.01 74 1009.4
20260510030537 76 333 0.0 0.0 0.00 0.01 0.01 74 1009.4
20260510030100 76 333 0.0 0.0 0.00 0.01 0.01 74 1009.4
20260510025533 76 333 0.0 0.0 0.00 0.01 0.01 74 1009.3
20260510025100 76 333 0.0 0.0 0.00 0.01 0.01 74 1009.4
20260510024532 76 333 0.0 0.0 0.00 0.01 0.01 74 1009.3
20260510024027 76 333 0.0 0.0 0.00 0.01 0.01 73 1009.3
20260510023555 76 333 0.0 0.0 0.00 0.01 0.01 73 1009.5
20260510023032 76 333 0.0 0.0 0.00 0.01 0.01 73 1009.5
20260510022545 76 333 0.0 0.0 0.00 0.01 0.01 73 1009.5
20260510022033 77 333 0.0 0.0 0.00 0.01 0.01 72 1009.5
20260510021544 77 333 0.0 0.0 0.00 0.01 0.01 72 1009.5
20260510021033 77 333 0.0 0.0 0.00 0.01 0.01 72 1009.4
20260510020600 77 333 0.0 0.0 0.00 0.01 0.01 72 1009.3
20260510020047 77 333 0.0 0.0 0.00 0.01 0.01 71 1009.2
20260510015557 77 332 0.0 0.0 0.00 0.01 0.01 71 1009.2
20260510015047 78 332 0.0 0.0 0.00 0.01 0.01 71 1009.2
20260509101534 68 334 0.0 0.0 0.00 0.21 0.01 92 1008.9
20260509101041 68 334 0.0 0.0 0.00 0.21 0.01 92 1008.9
20260509100537 68 334 0.0 0.0 0.00 0.21 0.01 92 1008.7
20260509100046 68 334 0.0 0.0 0.00 0.21 0.01 92 1008.6
20260509095533 68 334 0.0 0.0 0.00 0.21 0.01 92 1008.5
20260509095047 68 333 0.0 0.0 0.00 0.21 0.01 92 1008.6
20260509094538 68 333 0.0 0.0 0.00 0.21 0.01 91 1008.6
20260509094029 69 334 0.0 0.0 0.00 0.21 0.01 92 1008.6
20260509093539 69 333 0.0 0.0 0.00 0.21 0.01 92 1008.3
20260509093050 69 335 0.0 0.0 0.00 0.21 0.01 92 1008.4
20260509092539 69 333 0.0 0.0 0.00 0.21 0.01 91 1008.6
20260509092036 69 333 0.0 0.0 0.00 0.21 0.01 92 1008.5
20260509091606 69 333 0.0 0.0 0.00 0.21 0.01 91 1008.7
20260509091038 69 333 0.0 0.0 0.00 0.21 0.01 91 1008.8
20260509090556 69 333 0.0 0.0 0.00 0.21 0.01 91 1009.0
20260509090045 69 332 0.0 0.0 0.00 0.21 0.01 91 1009.1
20260509085535 69 333 0.0 0.0 0.00 0.21 0.01 91 1009.1
20260509085046 69 332 0.0 0.0 0.00 0.21 0.01 91 1009.1
20260509084536 69 332 0.0 0.0 0.00 0.21 0.01 91 1008.8
20260509084106 69 333 0.0 0.0 0.00 0.21 0.01 91 1008.8
20260509083536 69 333 0.0 0.0 0.00 0.21 0.01 91 1008.6
20260509083043 69 333 0.0 0.0 0.00 0.21 0.01 91 1008.4
20260509082533 69 333 0.0 0.0 0.00 0.21 0.01 91 1008.4
20260509082041 69 333 0.0 0.0 0.00 0.21 0.01 91 1008.4
20260509081553 69 333 0.0 0.0 0.00 0.21 0.01 91 1008.7
20260509081028 69 333 0.0 0.0 0.00 0.21 0.01 91 1009.0
20260509080543 69 333 0.0 0.0 0.00 0.21 0.01 91 1009.3
20260509080035 69 333 0.0 0.0 0.00 0.21 0.01 91 1009.3
20260509075548 69 333 0.0 0.0 0.00 0.21 0.01 91 1009.4
20260509075055 69 333 0.0 0.0 0.00 0.21 0.01 91 1009.6
20260509074546 68 333 0.0 0.0 0.00 0.21 0.01 91 1009.6
20260509074035 68 334 0.0 0.0 0.00 0.21 0.01 91 1009.6
20260509073542 68 334 0.0 0.0 0.00 0.21 0.01 91 1009.8
20260509073034 68 333 0.0 0.0 0.00 0.21 0.01 90 1010.1
20260509072542 68 333 0.0 0.0 0.00 0.21 0.01 90 1010.3
20260509072033 68 333 0.0 0.0 0.00 0.21 0.01 90 1010.3
20260509071541 68 333 0.0 0.0 0.00 0.21 0.01 90 1010.4
20260509071032 69 333 0.0 0.0 0.00 0.21 0.01 90 1010.4
20260509070539 69 333 0.0 0.0 0.00 0.21 0.01 90 1010.4
20260509070047 69 333 0.0 0.0 0.00 0.21 0.01 90 1010.7
20260509065538 69 333 0.0 0.0 0.00 0.21 0.01 90 1010.9
20260509065028 69 333 0.0 0.0 0.00 0.21 0.01 91 1011.0
20260509064559 68 332 0.0 0.0 0.00 0.21 0.01 91 1011.0
20260509064047 68 332 0.0 0.0 0.00 0.21 0.01 91 1011.1